Weather History for KUTA - January, 2013

Change the Weather History Date:

Wednesday, January 30, 2013

  Actual Average (KMEM) Record (KMEM)
Temperature  
Mean Temperature 48 °F 42 °F  
Max Temperature 59 °F 51 °F 77 °F (2002)
Min Temperature 35 °F 33 °F 2 °F (1966)
Degree Days  
Heating Degree Days 17 23  
Month to date heating degree days 715  
Since 1 July heating degree days 1879  
Cooling Degree Days 0 0  
Month to date cooling degree days 0  
Year to date cooling degree days 0  
Moisture  
Dew Point 41 °F    
Average Humidity 77    
Maximum Humidity 94    
Minimum Humidity 61    
Precipitation  
Precipitation 0.91 in 0.13 in 2.44 in (1950)
Month to date precipitation 3.84  
Year to date precipitation 3.84  
Snow  
Snow 0.00 in 0.00 in 6.00 in (1882)
Month to date snowfall 1.8  
Since 1 July snowfall 2.0  
Snow Depth -    
Sea Level Pressure  
Sea Level Pressure 29.75 in    
Wind  
Wind Speed 14 mph (WSW)    
Max Wind Speed 26 mph    
Max Gust Speed 41 mph    
Visibility 9 miles    
Events Rain , Thunderstorm    
T = Trace of Precipitation, MM = Missing Value Source: NWS Daily Summary

Daily Weather History Graph

Daily Weather History Graph

Search for Another Location

Airport or City:

Trip Planner

Search our weather history database for the weather conditions in past years. The results will help you decide how hot, cold, wet, or windy it might be!

Date:

Astronomy

Jan. 30, 2013 Rise Set
Actual Time 7:00 AM CST 5:29 PM CST
Civil Twilight 6:34 AM CST 5:55 PM CST
Nautical Twilight 6:04 AM CST 6:25 PM CST
Astronomical Twilight 5:34 AM CST 6:55 PM CST
Moon 9:15 PM CST (1/30) 8:39 AM CST (1/30)
Length of Visible Light 11h 21m
Length of Day
10h 28m
Waning Gibbous, 87% of the Moon is Illuminated
Jan 30
Waning Gibbous
Feb 3
Last Quarter
Feb 10
New
Feb 17
First Quarter
Feb 25
Full

Hourly Weather History & Observations

Time (CST) Temp. Windchill Dew Point Humidity Pressure Visibility Wind Dir Wind Speed Gust Speed Precip Events Conditions
12:15 AM 59.0 °F - 55.4 °F 88% 29.53 in 2.0 mi WNW 17.3 mph - 0.28 in Rain , Thunderstorm Rain
12:35 AM 55.4 °F - 53.6 °F 94% 29.56 in 5.0 mi NNW 10.4 mph - 0.37 in Rain Heavy Rain
12:55 AM 55.4 °F - 53.6 °F 94% 29.55 in 7.0 mi NNW 8.1 mph - 0.44 in Rain Rain
1:15 AM 55.4 °F - 53.6 °F 94% 29.55 in 5.0 mi NNW 6.9 mph - 0.06 in Rain Heavy Rain
1:35 AM 55.4 °F - 53.6 °F 94% 29.63 in 7.0 mi NNW 3.5 mph - 0.10 in Rain Rain
1:55 AM 55.4 °F - 53.6 °F 94% 29.62 in 7.0 mi WNW 4.6 mph - 0.15 in Rain Heavy Rain
2:15 AM 55.4 °F - 53.6 °F 94% 29.62 in 3.0 mi WNW 5.8 mph - 0.08 in Rain Heavy Rain
2:35 AM 55.4 °F - 53.6 °F 94% 29.66 in 7.0 mi SSE 6.9 mph - 0.12 in Rain Light Rain
2:55 AM 55.4 °F - 53.6 °F 94% 29.64 in 10.0 mi SSE 5.8 mph - 0.15 in Rain Rain
3:15 AM 55.4 °F - 53.6 °F 94% 29.64 in 3.0 mi South 3.5 mph - 0.08 in Rain Heavy Rain
3:35 AM 55.4 °F - 53.6 °F 94% 29.64 in 7.0 mi SSE 6.9 mph - 0.15 in Rain Rain
3:55 AM 55.4 °F - 53.6 °F 94% 29.59 in 10.0 mi SE 9.2 mph - 0.17 in Rain Light Rain
4:15 AM 55.4 °F - 53.6 °F 94% 29.59 in 10.0 mi SSE 10.4 mph - N/A   Mostly Cloudy
4:35 AM 55.4 °F - 53.6 °F 94% 29.58 in 10.0 mi SSE 8.1 mph - N/A   Mostly Cloudy
4:55 AM 55.4 °F - 51.8 °F 88% 29.59 in 10.0 mi South 8.1 mph - N/A   Overcast
5:15 AM 55.4 °F - 51.8 °F 88% 29.59 in 10.0 mi South 11.5 mph - N/A   Mostly Cloudy
5:35 AM 53.6 °F - 51.8 °F 94% 29.58 in 10.0 mi South 11.5 mph - N/A   Mostly Cloudy
5:55 AM 53.6 °F - 51.8 °F 94% 29.59 in 10.0 mi South 11.5 mph - N/A   Scattered Clouds
6:15 AM 53.6 °F - 51.8 °F 94% 29.59 in 10.0 mi South 11.5 mph - N/A   Mostly Cloudy
6:35 AM 55.4 °F - 51.8 °F 88% 29.60 in 10.0 mi South 12.7 mph - N/A   Mostly Cloudy
6:55 AM 55.4 °F - 51.8 °F 88% 29.60 in 10.0 mi South 16.1 mph 20.7 mph N/A   Scattered Clouds
7:15 AM 53.6 °F - 51.8 °F 94% 29.60 in 10.0 mi SSW 15.0 mph - N/A   Scattered Clouds
7:35 AM 53.6 °F - 51.8 °F 94% 29.60 in 10.0 mi South 17.3 mph 26.5 mph N/A   Scattered Clouds
7:55 AM 53.6 °F - 51.8 °F 94% 29.62 in 10.0 mi SSW 16.1 mph 19.6 mph N/A   Scattered Clouds
8:15 AM 53.6 °F - 51.8 °F 94% 29.61 in 10.0 mi SSW 15.0 mph - N/A   Clear
8:35 AM 55.4 °F - 50.0 °F 82% 29.62 in 10.0 mi SSW 19.6 mph 26.5 mph N/A   Scattered Clouds
8:55 AM 55.4 °F - 48.2 °F 77% 29.60 in 10.0 mi SW 17.3 mph 21.9 mph N/A   Scattered Clouds
9:15 AM 55.4 °F - 46.4 °F 72% 29.61 in 10.0 mi SW 17.3 mph 24.2 mph N/A   Scattered Clouds
9:35 AM 55.4 °F - 44.6 °F 67% 29.62 in 10.0 mi WSW 18.4 mph 25.3 mph N/A   Scattered Clouds
9:55 AM 53.6 °F - 44.6 °F 72% 29.63 in 10.0 mi WSW 16.1 mph - N/A   Scattered Clouds
10:15 AM 53.6 °F - 42.8 °F 67% 29.64 in 10.0 mi WSW 16.1 mph - N/A   Scattered Clouds
10:35 AM 53.6 °F - 42.8 °F 67% 29.67 in 10.0 mi WSW 19.6 mph - N/A   Scattered Clouds
10:55 AM 53.6 °F - 44.6 °F 72% 29.64 in 10.0 mi WSW 12.7 mph - N/A   Mostly Cloudy
11:15 AM 53.6 °F - 44.6 °F 72% 29.64 in 10.0 mi WSW 17.3 mph 21.9 mph N/A   Scattered Clouds
11:35 AM 53.6 °F - 42.8 °F 67% 29.64 in 10.0 mi West 20.7 mph - N/A   Mostly Cloudy
11:55 AM 51.8 °F - 42.8 °F 71% 29.66 in 10.0 mi West 21.9 mph 28.8 mph N/A   Mostly Cloudy
12:15 PM 51.8 °F - 41.0 °F 67% 29.67 in 10.0 mi West 18.4 mph - N/A   Scattered Clouds
12:35 PM 50.0 °F - 41.0 °F 71% 29.68 in 10.0 mi West 26.5 mph 32.2 mph N/A   Scattered Clouds
12:55 PM 50.0 °F - 41.0 °F 71% 29.68 in 10.0 mi West 18.4 mph 29.9 mph N/A   Mostly Cloudy
1:15 PM 48.2 °F - 37.4 °F 66% 29.70 in 10.0 mi West 24.2 mph 33.4 mph N/A   Mostly Cloudy
1:35 PM 48.2 °F - 37.4 °F 66% 29.70 in 10.0 mi West 21.9 mph - N/A   Overcast
1:55 PM 46.4 °F 38.3 °F 37.4 °F 71% 29.71 in 10.0 mi West 23.0 mph 29.9 mph N/A   Overcast
2:15 PM 46.4 °F 38.1 °F 35.6 °F 66% 29.73 in 10.0 mi West 24.2 mph 33.4 mph N/A   Mostly Cloudy
2:35 PM 46.4 °F 38.1 °F 33.8 °F 62% 29.75 in 10.0 mi West 24.2 mph 41.4 mph N/A   Mostly Cloudy
2:55 PM 44.6 °F 35.5 °F 33.8 °F 66% 29.77 in 10.0 mi West 25.3 mph 33.4 mph N/A   Overcast
3:15 PM 44.6 °F 35.9 °F 33.8 °F 66% 29.78 in 10.0 mi West 23.0 mph 26.5 mph N/A   Mostly Cloudy
3:35 PM 44.6 °F 36.6 °F 33.8 °F 66% 29.79 in 10.0 mi West 19.6 mph 33.4 mph N/A   Mostly Cloudy
3:55 PM 44.6 °F 35.5 °F 33.8 °F 66% 29.80 in 10.0 mi West 25.3 mph 31.1 mph N/A   Mostly Cloudy
4:15 PM 44.6 °F 36.9 °F 33.8 °F 66% 29.81 in 10.0 mi West 18.4 mph 29.9 mph N/A   Overcast
4:35 PM 44.6 °F 36.9 °F 32.0 °F 61% 29.82 in 10.0 mi West 18.4 mph 27.6 mph N/A   Overcast
4:55 PM 44.6 °F 36.1 °F 32.0 °F 61% 29.84 in 10.0 mi West 21.9 mph 31.1 mph N/A Rain Light Rain
5:15 PM 42.8 °F 34.3 °F 32.0 °F 66% 29.85 in 10.0 mi WNW 19.6 mph 26.5 mph N/A   Overcast
5:35 PM 42.8 °F 34.3 °F 32.0 °F 66% 29.87 in 10.0 mi WNW 19.6 mph 26.5 mph N/A   Overcast
5:55 PM 42.8 °F 34.3 °F 32.0 °F 66% 29.89 in 10.0 mi WNW 19.6 mph 31.1 mph N/A   Overcast
6:15 PM 42.8 °F 34.5 °F 30.2 °F 61% 29.91 in 10.0 mi WNW 18.4 mph 28.8 mph N/A   Mostly Cloudy
6:35 PM 41.0 °F 33.1 °F 30.2 °F 65% 29.92 in 10.0 mi WNW 15.0 mph 20.7 mph N/A   Scattered Clouds
6:55 PM 41.0 °F 33.9 °F 30.2 °F 65% 29.94 in 10.0 mi WNW 12.7 mph - N/A   Scattered Clouds
7:15 PM 41.0 °F 33.5 °F 30.2 °F 65% 29.95 in 10.0 mi WNW 13.8 mph - N/A   Scattered Clouds
7:35 PM 37.4 °F 30.3 °F 32.0 °F 81% 29.96 in 10.0 mi WNW 10.4 mph - N/A   Clear
7:55 PM 37.4 °F 30.3 °F 30.2 °F 75% 29.98 in 10.0 mi WNW 10.4 mph - N/A   Clear
8:15 PM 41.0 °F 31.6 °F 28.4 °F 61% 30.00 in 10.0 mi West 20.7 mph 24.2 mph N/A   Scattered Clouds
8:35 PM 39.2 °F 29.3 °F 28.4 °F 65% 30.01 in 10.0 mi WNW 20.7 mph 32.2 mph N/A   Scattered Clouds
8:55 PM 39.2 °F 30.2 °F 28.4 °F 65% 30.02 in 10.0 mi West 17.3 mph 26.5 mph N/A   Clear
9:15 PM 37.4 °F 28.5 °F 28.4 °F 70% 30.03 in 10.0 mi West 15.0 mph 21.9 mph N/A   Clear
9:35 PM 37.4 °F 29.3 °F 30.2 °F 75% 30.05 in 10.0 mi West 12.7 mph - N/A   Clear
9:55 PM 37.4 °F 28.2 °F 28.4 °F 70% 30.05 in 10.0 mi West 16.1 mph 21.9 mph N/A   Clear
10:15 PM 37.4 °F 27.8 °F 26.6 °F 65% 30.05 in 10.0 mi West 17.3 mph 21.9 mph N/A   Clear
10:35 PM 37.4 °F 27.2 °F 28.4 °F 70% 30.06 in 10.0 mi West 19.6 mph 24.2 mph N/A   Clear
10:55 PM 37.4 °F 27.8 °F 28.4 °F 70% 30.06 in 10.0 mi West 17.3 mph 20.7 mph N/A   Clear
11:15 PM 37.4 °F 27.8 °F 28.4 °F 70% 30.08 in 10.0 mi West 17.3 mph 23.0 mph N/A   Clear
11:35 PM 37.4 °F 26.6 °F 28.4 °F 70% 30.08 in 10.0 mi West 21.9 mph 25.3 mph N/A   Clear
11:55 PM 35.6 °F 25.9 °F 28.4 °F 75% 30.08 in 10.0 mi West 16.1 mph 24.2 mph N/A   Clear